Regional Weather Roundup
Issued by NWS Wilmington, NC

Home | Current Version | Previous Version | Text Only | Print | Product List | Glossary On
Versions: 1 2 3 4 5 6 7 8 9 10 11 12 13 14 15 16 17 18 19 20 21 22 23 24 25 26 27 28 29 30 31 32 33 34 35 36 37 38 39 40 41 42 43 44 45 46 47 48 49 50
000
ASUS42 KILM 281313
RWRILM
RWRILM
REGIONAL HOURLY WEATHER ROUNDUP
NATIONAL WEATHER SERVICE WILMINGTON NC
900 AM EDT THU JUL 28 2016

NOTE: "FAIR" INDICATES FEW OR NO CLOUDS BELOW 12,000 FEET WITH NO
SIGNIFICANT WEATHER AND/OR OBSTRUCTIONS TO VISIBILITY.

...............WFO WILMINGTON COUNTY WARNING AREA...............

......COASTAL NC AND SC COUNTIES......

CITY           SKY/WX    TMP DP  RH WIND       PRES   REMARKS
WILMINGTON     SUNNY     87  76  69 W8        29.97R HX  97
N MYRTLE BEACH SUNNY     86  73  65 W8        29.98R HX  93
MYRTLE BEACH   SUNNY     88  68  51 W12       30.01R HX  91

......INLAND NC AND SC COUNTIES.......

CITY           SKY/WX    TMP DP  RH WIND       PRES   REMARKS
LUMBERTON      SUNNY     85  71  63 W10       29.97R HX  90
ELIZABETHTOWN  SUNNY     84  74  70 W8        29.97R HX  91
WHITEVILLE     SUNNY     84  74  71 W5        29.98R HX  90
FLORENCE       SUNNY     86  71  60 W10       29.99R HX  91
DARLINGTON     NOT AVBL
KINGSTREE      FAIR      82  70  65 W7        30.01R
HARTSVILLE     FAIR      82  70  65 SW9       29.98R
BENNETTSVILLE  FAIR      86  73  66 SW7       29.97R HX  93
CONWAY         FAIR      84  72  65 W6        29.99S
GEORGETOWN     FAIR      82  73  74 W7        30.02R
MARION           N/A     82  70  65 W10       29.99R

....................REST OF NORTH CAROLINA......................

.........EASTERN NC.........

CITY           SKY/WX    TMP DP  RH WIND       PRES   REMARKS
CAPE HATTERAS  MOSUNNY   84  80  88 SW6       29.95S HX  97
JACKSONVILLE   SUNNY     87  78  74 SW6       29.97R HX 100
MOREHEAD CITY  SUNNY     84  80  88 SW9         N/A  HX  97
KENANSVILLE    NOT AVBL
NEW BERN       SUNNY     85  77  77 W6        29.96R HX  95
ELIZABETH CITY SUNNY     84  76  76 SW6       29.93S HX  93

.........CENTRAL NC.........

CITY           SKY/WX    TMP DP  RH WIND       PRES   REMARKS
RALEIGH DURHAM MOSUNNY   82  74  76 SW3       29.95S
ROCKY MOUNT    SUNNY     82  78  88 SW5       29.94S HX  91
ROANOKE RAPIDS NOT AVBL
FAYETTEVILLE   SUNNY     87  71  58 W9        29.96R HX  93
HOFFMAN        SUNNY     84  71  64 W8        29.97R

.........WESTERN NC.........

CITY           SKY/WX    TMP DP  RH WIND       PRES   REMARKS
CHARLOTTE      MOSUNNY   82  70  66 SW8       29.99R
GREENSBORO     MOSUNNY   81  72  74 VRB3      29.97R
HICKORY        NOT AVBL
BOONE          NOT AVBL
ASHEVILLE      NOT AVBL

.....................REST OF SOUTH CAROLINA.....................

.........EASTERN SC.........

CITY           SKY/WX    TMP DP  RH WIND       PRES   REMARKS
CHARLESTON     SUNNY     87  72  60 NW6       30.02R HX  93
BEAUFORT MCAS  SUNNY     86  72  62 CALM      30.03S HX  92
HILTON HEAD    SUNNY     84  72  65 SW7       30.04R

.........CENTRAL SC.........

CITY           SKY/WX    TMP DP  RH WIND       PRES   REMARKS
COLUMBIA       SUNNY     88  69  53 W13       30.00R HX  92
ORANGEBURG     SUNNY     85  71  63 W9        30.02S HX  90
SUMTER SHAW    SUNNY     84  71  63 W10       29.98R

.........WESTERN SC.........

CITY           SKY/WX    TMP DP  RH WIND       PRES   REMARKS
GREENVILLE     NOT AVBL
ROCK HILL      SUNNY     82  68  62 W12       29.99R
ANDERSON       SUNNY     82  68  62 W14       30.02S
CLEMSON        NOT AVBL
GREENWOOD      SUNNY     81  68  64 SW10      30.04R


...................COASTAL AND OFFSHORE REPORTS..................

................LOCAL PIERS AND NC RESERVE................


STATION/POSITION TIME  SKY/WX   TEMP    WIND        PRES    VSBY
                                AIR SEA DIR/SP/G
                 (UTC)          (F)     (DEG/KT/KT) (MB)    (MI)
JOHNY MRCER PIER 1200            84 79  270/  7/ 11 1013.4R
NC RESRV MASNBRO NOT AVBL
OCEAN CREST PIER NOT AVBL
SPRINGMAID  PIER 1200            83 84              1014.9R


................COASTAL AND OFFSHORE BUOYS................


STATION/POSITION TIME  SKY/WX   TEMP    WIND        PRES    VSBY
                                AIR SEA DIR/SP/G
                 (UTC)          (F)     (DEG/KT/KT) (MB)    (MI)
DIMNDSHOAL 41025 1250            84 83  220/ 10/ 10 1014.3F
WVE H/P(F/S)=  2/ 6 SWL H/P/D(F/S/D)=  2/210/ 6

CAPE LOOKOUT     1300            85     250/  9/ 11 1014.2R
ONSLOW BAY 41036 NOT AVBL
ONSLOW BAY 41064 1208            85 84  250/ 14/ 17 1014.4R
ONSLOW BAY 41159 1225               84                N/A
WVE H/P(F/S)=  4/ 6

5SE WRITBC 41038 1208            82 80  270/  8/ 12 1015.3R
MASNBO INL 41110 1206               80                N/A
WVE H/P(F/S)=  2/ 5

WILM HARBR 41108 1226               85                N/A
WVE H/P(F/S)=  3/ 5

27SE WRITB 41037 1208            85 84  240/ 12/ 16 1014.8R
FRYING PAN 41013 1300            85 85  260/ 12/ 14 1015.3R
SUNST NRSH 41024 1208            84 84  270/ 12/ 14 1014.7R
CAPRS NRSH 41029 1208            84 83  290/ 10/ 12 1015.9R
EDISTO     41004 1250            86 86  260/ 14/ 16 1016.0R
WVE H/P(F/S)=  4/ 5 SWL H/P/D(F/S/D)=  2/150/ 8



..........OFFSHORE BUOYS BEYOND 100 NM OFFSHORE...........
.....IN A TRIANGLE---HAT TO BERMUDA TO BAHAMAS TO HAT.....


STATION/POSITION TIME  SKY/WX   TEMP    WIND        PRES    VSBY
                                AIR SEA DIR/SP/G
                 (UTC)          (F)     (DEG/KT/KT) (MB)    (MI)
150E HAT   41001 NOT AVBL
W BERMUDA  41048 1250            83 85  320/  6/  6 1016.4R
WVE H/P(F/S)=  2/ 6 SWL H/P/D(F/S/D)=  2/280/ 6

ATLANTIC S 41049 1250            83 85  170/  6/  6 1018.4R
WVE H/P(F/S)=  3/ 8 SWL H/P/D(F/S/D)=  3/ 90/ 8

E BAHAMAS  41046 1300            83 85  100/  4/  4 1018.1R
NE BAHAMAS 41047 1300            83 85  290/ 10/ 12 1018.1R
120E CANVRL41010 1220            85 86  220/  8/ 10 1018.5R

END



USA.gov is the U.S. government's official web portal to all federal, state and local government web resources and services.